Vorticity
11 11 12 14 15 16 16 15 15 14 12 10 8 8 8 8 8 8 9 10 11 12 13 14 13 12 12 13 13 13 13 13 12 12 12 12 11 11 11 11 11 11 12 12 12 12 12 12 12 12 11 11 10 10 10 10 9 8 8 8 8 8 8 9 9 9 9 9 9
12 11 11 11 13 13 14 14 14 14 14 14 13 12 11 11 10 10 10 11 12 12 13 13 14 13 13 14 14 14 14 13 13 13 13 13 13 13 14 13 14 14 14 14 14 13 13 12 12 11 11 11 10 10 9 10 9 8 8 8 9 9 9 9 10 10 10 9 9
13 12 11 10 10 11 12 13 14 14 15 16 16 15 14 13 13 13 13 13 13 13 12 12 13 14 14 14 14 15 15 15 15 14 14 14 14 14 15 15 15 16 16 15 14 13 13 12 12 11 11 10 10 9 9 9 9 8 8 9 9 9 9 10 10 10 10 10 10
13 13 12 11 11 11 12 12 12 12 13 14 15 16 16 15 14 14 13 13 13 13 13 12 13 13 14 13 14 14 14 14 14 14 13 13 13 14 14 15 15 15 15 14 14 13 13 12 12 11 11 10 9 9 9 9 9 9 9 10 9 9 9 9 9 9 9 9 9
12 11 11 11 11 11 12 12 11 11 11 12 13 14 15 15 14 13 12 12 12 12 12 12 12 12 12 12 12 11 11 12 11 11 11 11 11 11 11 12 13 13 13 13 12 12 12 12 11 11 11 10 10 9 9 9 9 9 9 9 9 9 9 9 8 8 8 8 8
11 11 10 10 10 10 10 10 11 11 11 11 11 11 12 13 13 12 11 11 11 11 10 10 10 10 11 11 11 10 10 9 9 9 9 8 8 8 9 9 10 11 11 11 12 12 11 11 10 10 10 9 9 9 9 8 8 7 7 7 7 7 7 7 7 7 7 7 7
12 11 11 10 9 9 9 9 10 10 10 10 10 10 10 11 11 11 11 10 9 9 8 8 9 9 9 9 9 9 9 8 8 8 8 7 7 7 7 8 8 9 10 10 11 11 10 10 9 9 9 9 8 8 7 7 6 6 6 6 6 6 6 6 6 6 6 6 6
12 12 11 11 10 10 9 9 9 9 9 9 10 10 10 9 10 10 10 9 9 9 8 8 9 9 8 8 8 8 8 7 7 7 7 7 7 7 7 7 7 7 8 8 8 8 8 9 8 8 8 8 7 7 6 6 5 5 5 5 5 5 5 5 5 5 5 5 5
10 10 11 11 11 11 10 10 10 9 9 9 9 9 9 9 9 9 9 9 9 9 9 9 8 8 8 8 8 8 8 8 8 7 7 7 7 6 6 6 6 6 6 6 6 6 6 6 6 7 7 6 6 6 6 5 5 5 5 6 5 5 5 5 5 5 4 4 4
8 8 9 10 10 10 10 10 10 10 10 9 9 9 9 9 9 9 9 8 9 9 9 9 9 9 9 9 9 9 9 9 9 8 8 8 8 7 7 7 7 6 6 6 6 5 5 5 5 5 6 6 5 5 5 5 5 5 6 6 5 5 5 5 5 5 5 5 5
5 6 7 8 9 9 10 10 10 10 10 10 9 9 9 8 8 8 8 8 9 9 9 9 9 9 9 9 9 9 10 10 9 9 9 9 9 9 9 8 8 8 7 7 7 7 6 6 6 6 6 6 6 5 5 6 6 6 6 6 6 6 6 6 6 6 6 6 6
4 4 5 5 6 7 8 9 9 10 10 10 10 9 9 9 8 8 8 8 9 8 8 8 9 9 9 9 9 9 9 9 9 10 9 9 9 9 9 9 9 9 9 8 8 8 8 8 8 7 7 7 7 7 7 7 7 7 7 7 7 7 7 7 8 7 7 7 7
4 4 4 4 4 5 5 6 7 8 8 9 9 9 9 9 9 9 9 9 8 8 8 8 8 8 8 8 8 9 9 9 9 9 9 9 9 9 9 9 9 9 9 9 9 9 9 9 9 9 8 8 8 9 9 9 9 9 9 9 9 9 9 9 9 9 9 9 9
4 4 4 4 4 4 4 4 5 5 6 7 7 8 8 8 9 9 9 9 9 9 8 8 8 8 8 8 8 8 9 9 9 9 9 9 9 9 9 9 9 9 9 9 9 9 9 9 9 9 9 9 9 9 10 10 11 11 11 10 10 10 10 11 11 11 11 11 11
4 4 4 5 5 5 5 5 5 5 5 5 5 6 6 6 7 8 8 8 9 9 8 8 8 9 9 8 8 9 9 9 9 9 9 9 9 9 9 9 9 9 9 9 9 9 9 9 9 9 9 9 9 10 10 10 11 11 11 11 10 10 11 11 11 11 11 11 11
5 5 5 4 4 4 5 5 5 5 5 5 5 5 5 5 5 6 7 7 7 8 8 8 8 8 8 8 8 9 9 9 9 9 9 9 10 10 10 10 10 10 10 10 10 10 10 10 10 10 10 10 10 10 10 11 10 10 10 10 10 10 10 10 10 10 10 10 10
6 6 6 5 5 4 4 4 4 4 5 5 5 5 5 5 5 5 6 6 6 6 6 7 7 7 7 7 8 8 8 8 9 9 9 9 9 10 10 10 10 11 11 11 10 10 10 10 10 11 11 11 11 11 11 11 11 11 11 11 11 10 10 10 10 10 10 10 10
7 7 7 6 6 5 5 4 4 4 4 4 4 5 5 5 5 5 5 5 5 5 5 5 6 6 6 6 6 7 7 7 7 8 8 8 8 9 9 9 10 10 10 10 10 10 10 11 11 11 12 12 12 12 12 13 13 13 13 12 12 12 11 11 11 11 11 11 10
6 6 7 7 7 7 6 6 5 4 4 4 4 4 4 4 5 5 5 5 5 5 5 5 5 5 5 5 6 6 6 6 6 7 7 7 7 7 7 8 8 8 9 9 9 10 10 10 11 11 11 11 12 12 12 13 13 13 13 13 13 13 13 13 13 13 12 12 12
6 6 6 7 7 7 7 7 7 6 5 4 4 4 4 4 4 4 4 5 5 5 5 5 5 5 5 5 5 5 5 5 5 6 6 6 6 6 6 6 6 7 7 8 8 9 9 9 9 10 10 10 10 11 11 11 12 12 12 13 13 13 13 13 13 13 13 13 13
7 7 6 6 7 7 7 8 8 7 7 6 5 5 4 4 4 4 4 4 4 5 5 5 5 5 5 5 5 5 5 5 5 5 5 5 5 5 5 5 5 5 6 6 7 7 8 8 8 8 8 8 9 9 9 9 10 10 10 11 11 11 11 11 12 12 12 13 13
7 7 7 7 7 7 7 7 8 8 8 8 7 7 6 5 5 4 4 3 3 4 4 5 5 5 5 5 5 5 5 5 5 5 5 5 5 5 5 5 5 5 5 6 6 6 7 7 7 7 7 7 7 7 8 8 8 8 9 9 9 9 9 10 10 10 11 11 11
6 7 7 7 7 7 7 7 7 7 8 8 8 8 8 7 7 6 5 4 4 4 4 4 4 5 5 6 6 5 5 5 5 5 5 5 5 5 5 5 5 5 5 6 6 6 6 6 6 6 6 6 6 6 7 7 7 7 8 8 8 8 8 8 9 9 9 9 9
5 6 7 8 8 8 8 7 7 7 7 7 8 8 8 8 8 7 7 6 5 5 4 3 3 3 4 4 5 6 6 6 6 6 6 6 5 5 5 5 5 5 5 5 5 5 5 5 5 5 5 6 6 6 6 6 6 7 7 7 7 7 8 8 8 8 8 8 8
5 5 6 7 7 7 7 7 7 7 7 6 6 7 7 8 8 8 8 8 7 6 6 5 4 4 3 3 4 4 5 6 6 6 6 7 6 6 6 5 5 5 5 5 5 5 5 5 5 4 4 5 5 5 5 5 6 6 6 6 6 6 6 7 7 7 7 7 7
5 5 5 5 5 6 6 7 7 7 6 6 6 6 6 6 7 7 8 8 8 7 7 7 6 5 5 4 4 4 4 4 5 5 6 6 6 6 6 6 6 6 6 6 5 5 5 4 4 4 4 4 4 4 4 5 5 5 5 5 5 5 5 5 6 6 6 6 6
4 4 4 4 4 5 5 6 6 6 6 6 6 6 5 5 6 6 7 7 7 8 8 8 7 7 6 6 5 4 4 4 4 4 5 5 5 6 6 7 7 7 7 7 6 6 5 5 4 4 3 3 4 4 4 4 5 5 5 5 6 6 5 5 5 4 4 4 5
5 4 4 4 4 4 4 5 5 6 6 6 6 5 5 5 5 5 5 6 6 7 7 8 8 7 7 7 6 6 5 4 4 4 4 4 4 5 5 6 7 7 7 7 7 7 6 6 5 5 4 3 3 3 3 3 4 4 5 6 7 7 8 8 7 7 6 5 4
6 5 5 4 4 4 4 4 4 4 4 5 5 5 5 6 5 5 5 5 5 6 6 7 7 8 8 7 7 6 6 5 5 5 4 4 4 4 4 4 5 6 6 7 7 7 6 6 6 6 5 5 4 3 2 2 2 2 3 4 5 6 8 9 10 11 11 11 10
8 7 6 5 4 4 4 3 3 3 4 4 5 6 6 6 6 6 6 6 6 6 6 6 7 7 7 7 7 7 7 6 6 5 5 5 5 5 4 4 4 4 4 5 6 6 6 6 6 6 6 6 5 5 4 3 2 1 1 0 1 1 2 4 6 9 11 14 16
10 9 9 8 7 6 5 4 4 4 4 5 6 6 7 7 7 7 7 7 7 6 6 6 6 7 7 7 7 7 7 7 7 6 6 6 6 5 5 5 4 4 3 3 4 5 6 6 6 6 6 6 6 6 6 6 5 4 3 1 0 -1 -1 -2 -1 -0 2 5 9
10 10 10 10 9 9 8 7 7 6 6 6 6 7 7 7 7 7 7 7 7 7 7 7 7 7 7 7 7 7 7 7 7 7 6 6 6 6 6 6 6 5 5 4 4 4 4 5 6 6 6 6 6 7 7 7 7 7 6 5 4 3 2 0 -1 -3 -4 -5 -3
11 11 10 10 10 10 9 9 9 8 7 7 7 7 7 8 8 8 8 8 8 8 8 8 8 8 8 7 7 7 7 8 8 8 7 7 6 6 6 6 6 6 6 6 5 5 4 4 5 5 6 6 6 7 7 7 7 7 8 8 8 7 6 5 4 3 0 -2 -5
14 13 12 11 11 10 10 10 10 9 9 9 8 8 8 8 9 9 9 8 8 8 8 9 9 9 9 9 9 8 8 8 8 8 8 8 8 7 7 7 6 7 7 7 7 6 5 5 5 5 5 6 6 6 7 7 7 8 8 8 8 8 8 9 8 8 7 6 4
17 16 15 14 13 12 12 11 11 11 10 10 10 10 10 10 10 10 9 9 9 9 9 9 10 10 10 11 10 10 9 9 9 8 9 9 9 8 8 7 7 7 7 7 7 7 7 6 6 6 6 6 6 6 6 7 7 7 7 7 7 8 8 9 9 9 10 11 10
20 19 18 17 17 16 15 14 13 13 12 11 11 11 11 11 11 11 11 10 10 10 10 10 10 10 11 11 11 11 11 10 10 9 9 9 9 9 9 9 8 8 7 7 7 7 7 7 7 7 7 7 7 7 6 6 7 7 7 7 7 7 7 7 8 8 9 10 11
21 21 20 19 18 18 17 17 16 15 15 14 13 12 12 11 12 11 11 11 12 12 11 11 11 11 11 11 12 12 12 12 11 11 11 11 11 10 10 10 9 9 9 8 8 8 8 8 8 8 8 8 8 8 7 7 6 7 7 7 7 7 7 7 7 7 8 9 9
21 21 20 19 18 17 17 17 17 16 16 15 14 13 13 12 12 12 11 11 12 12 12 11 11 11 11 11 11 12 12 13 12 12 12 12 11 11 11 11 11 10 10 9 9 8 8 8 8 8 8 8 9 9 9 8 7 7 7 7 7 7 7 7 7 7 7 7 8
19 19 19 18 16 15 15 14 14 14 14 14 13 13 12 12 12 11 11 10 11 11 11 11 11 11 11 10 11 11 12 12 13 13 12 12 12 12 12 12 12 12 11 11 10 10 9 9 8 8 8 8 9 9 9 9 8 8 7 7 7 7 7 7 7 7 7 7 7
17 17 17 16 15 13 12 12 12 11 11 12 12 11 11 11 11 10 10 9 9 9 9 10 10 10 10 10 10 11 11 12 12 12 12 12 11 11 12 12 12 12 12 12 12 11 10 10 9 9 8 8 8 8 9 9 9 9 8 8 8 8 8 8 8 8 8 7 7
15 15 16 15 14 13 12 12 11 11 11 11 11 11 11 10 10 10 10 10 9 9 9 9 9 10 10 10 10 10 10 11 11 12 12 11 11 11 11 11 12 12 13 13 13 12 12 11 10 10 9 8 8 8 8 9 9 9 9 9 8 8 8 9 9 9 9 9 9
Height
5665 5666 5666 5667 5668 5670 5671 5672 5673 5674 5675 5676 5677 5678 5678 5679 5679 5680 5680 5680 5681 5681 5682 5683 5684 5685 5686 5687 5688 5689 5690 5690 5692 5692 5693 5694 5695 5695 5696 5697 5699 5700 5700 5701 5702 5703 5704 5704 5705 5706 5706 5707 5708 5708 5709 5709 5710 5711 5711 5712 5712 5713 5714 5714 5715 5715 5715 5716 5716
5663 5663 5663 5664 5665 5666 5667 5668 5669 5670 5671 5672 5674 5675 5675 5676 5677 5677 5677 5677 5678 5678 5679 5680 5680 5681 5682 5683 5684 5685 5686 5687 5688 5689 5689 5690 5691 5692 5693 5694 5695 5695 5696 5697 5698 5699 5700 5700 5701 5702 5703 5703 5704 5704 5705 5705 5706 5706 5707 5707 5708 5709 5710 5710 5710 5711 5711 5712 5712
5660 5661 5661 5661 5662 5662 5663 5664 5665 5666 5667 5668 5670 5671 5672 5673 5673 5674 5674 5675 5675 5675 5676 5676 5677 5678 5679 5680 5680 5681 5682 5683 5684 5685 5686 5686 5687 5688 5689 5690 5691 5692 5693 5693 5694 5695 5696 5696 5697 5698 5699 5699 5700 5700 5701 5701 5702 5703 5703 5703 5704 5705 5705 5706 5706 5707 5707 5708 5708
5659 5659 5659 5659 5659 5660 5660 5661 5662 5663 5664 5665 5666 5667 5668 5669 5670 5670 5670 5671 5672 5672 5673 5673 5674 5675 5676 5677 5677 5678 5679 5680 5680 5681 5682 5683 5684 5685 5685 5686 5687 5688 5689 5690 5690 5691 5692 5693 5694 5694 5695 5695 5696 5696 5697 5697 5698 5699 5699 5699 5700 5701 5701 5702 5702 5703 5703 5704 5704
5657 5657 5657 5657 5657 5657 5658 5658 5659 5660 5660 5661 5662 5663 5664 5665 5665 5666 5667 5668 5668 5669 5670 5670 5671 5672 5673 5674 5675 5675 5676 5676 5677 5678 5679 5679 5680 5681 5682 5683 5684 5684 5685 5686 5687 5688 5688 5689 5690 5690 5691 5691 5692 5692 5693 5693 5694 5695 5695 5695 5696 5697 5697 5698 5698 5699 5699 5700 5700
5655 5655 5655 5655 5655 5655 5656 5656 5657 5657 5658 5659 5660 5660 5660 5661 5662 5663 5664 5664 5665 5665 5666 5667 5668 5669 5670 5670 5671 5672 5673 5673 5674 5675 5675 5676 5677 5678 5678 5679 5680 5681 5681 5682 5683 5684 5685 5685 5686 5686 5687 5687 5688 5688 5689 5690 5690 5691 5691 5691 5692 5693 5693 5694 5694 5695 5695 5695 5695
5653 5653 5653 5653 5654 5654 5654 5654 5655 5655 5655 5656 5657 5657 5657 5658 5659 5660 5660 5661 5661 5662 5663 5664 5665 5665 5666 5667 5668 5669 5670 5670 5671 5671 5672 5673 5673 5674 5675 5676 5676 5677 5678 5679 5680 5680 5681 5682 5682 5683 5683 5684 5684 5685 5685 5686 5686 5687 5687 5688 5688 5689 5689 5690 5690 5690 5691 5691 5691
5651 5651 5651 5651 5651 5652 5652 5652 5653 5653 5654 5654 5654 5654 5655 5655 5656 5656 5657 5657 5658 5659 5660 5661 5661 5662 5663 5664 5665 5665 5666 5667 5667 5668 5669 5669 5670 5670 5671 5672 5673 5673 5674 5675 5676 5676 5677 5678 5679 5679 5679 5680 5680 5681 5681 5682 5682 5683 5683 5684 5684 5685 5685 5686 5686 5686 5687 5687 5687
5648 5648 5649 5649 5649 5649 5650 5650 5650 5651 5651 5651 5651 5651 5652 5652 5653 5653 5653 5654 5655 5655 5656 5657 5658 5659 5659 5660 5661 5661 5662 5663 5664 5665 5665 5665 5666 5667 5667 5668 5669 5670 5670 5671 5672 5673 5673 5674 5675 5675 5675 5676 5677 5677 5678 5678 5679 5679 5680 5680 5680 5681 5681 5682 5682 5683 5683 5683 5684
5645 5645 5646 5646 5646 5646 5647 5647 5647 5648 5648 5648 5648 5648 5649 5649 5649 5650 5650 5650 5651 5652 5653 5653 5654 5655 5655 5656 5657 5658 5658 5659 5660 5661 5661 5662 5663 5663 5664 5664 5665 5665 5666 5667 5668 5669 5669 5670 5671 5671 5672 5672 5673 5673 5674 5675 5675 5676 5676 5676 5677 5677 5678 5678 5678 5679 5679 5680 5680
5643 5643 5643 5643 5643 5644 5644 5644 5644 5645 5645 5645 5645 5645 5645 5645 5645 5646 5646 5646 5648 5648 5649 5649 5650 5651 5652 5652 5653 5654 5655 5655 5656 5657 5658 5658 5659 5659 5660 5660 5661 5662 5662 5663 5664 5665 5665 5666 5667 5667 5668 5668 5669 5670 5670 5670 5671 5672 5672 5672 5673 5674 5674 5674 5675 5675 5676 5676 5676
5641 5641 5641 5640 5640 5641 5641 5641 5641 5641 5641 5641 5641 5641 5641 5641 5642 5642 5642 5643 5644 5644 5644 5645 5646 5647 5648 5648 5649 5650 5651 5652 5653 5653 5654 5655 5655 5656 5656 5657 5657 5658 5659 5659 5660 5661 5662 5662 5663 5663 5664 5664 5665 5665 5666 5667 5667 5668 5668 5669 5669 5670 5670 5670 5671 5671 5672 5672 5672
5638 5638 5638 5638 5638 5638 5638 5638 5638 5638 5638 5638 5638 5638 5638 5638 5638 5639 5639 5640 5640 5640 5640 5641 5642 5643 5644 5644 5645 5646 5647 5648 5649 5650 5650 5651 5652 5652 5653 5653 5654 5655 5655 5655 5656 5657 5658 5658 5659 5659 5660 5660 5661 5662 5662 5663 5664 5664 5665 5665 5665 5666 5666 5667 5667 5667 5668 5668 5668
5635 5635 5635 5635 5635 5635 5635 5635 5635 5635 5635 5635 5635 5635 5635 5635 5635 5636 5636 5637 5637 5637 5637 5638 5639 5639 5640 5640 5641 5642 5643 5644 5645 5646 5647 5647 5648 5649 5650 5650 5650 5651 5651 5652 5653 5653 5654 5655 5655 5655 5656 5657 5657 5658 5659 5659 5660 5660 5661 5661 5662 5662 5662 5663 5663 5664 5664 5664 5665
5632 5631 5631 5631 5631 5631 5631 5631 5632 5632 5632 5632 5631 5631 5632 5632 5632 5632 5633 5634 5634 5634 5634 5635 5635 5636 5636 5637 5638 5638 5639 5640 5641 5642 5643 5644 5644 5645 5646 5646 5647 5647 5648 5649 5649 5650 5650 5651 5651 5652 5652 5653 5653 5654 5655 5655 5656 5656 5657 5657 5658 5658 5658 5659 5659 5660 5660 5660 5660
5628 5627 5628 5628 5628 5628 5628 5628 5628 5628 5628 5628 5628 5628 5628 5629 5629 5629 5630 5630 5630 5630 5631 5632 5632 5632 5633 5633 5634 5635 5635 5636 5637 5638 5639 5640 5640 5641 5642 5642 5643 5644 5644 5645 5645 5646 5647 5647 5648 5648 5649 5649 5650 5650 5651 5652 5652 5653 5653 5653 5654 5654 5655 5655 5655 5656 5656 5656 5657
5623 5623 5623 5624 5624 5624 5623 5623 5624 5624 5624 5624 5624 5624 5625 5625 5625 5625 5626 5626 5626 5627 5627 5628 5628 5629 5629 5630 5630 5631 5632 5633 5634 5634 5635 5635 5636 5637 5638 5638 5639 5640 5640 5641 5642 5642 5643 5643 5644 5645 5645 5646 5646 5647 5647 5648 5649 5649 5649 5650 5650 5650 5650 5651 5651 5652 5652 5652 5653
5617 5618 5618 5619 5619 5619 5619 5619 5619 5619 5619 5620 5620 5620 5620 5621 5621 5621 5622 5622 5622 5623 5623 5624 5624 5625 5625 5626 5627 5627 5628 5629 5630 5630 5631 5631 5632 5633 5633 5634 5635 5635 5636 5637 5638 5638 5639 5640 5640 5641 5641 5642 5642 5643 5644 5644 5645 5645 5645 5646 5646 5646 5647 5647 5647 5648 5648 5649 5649
5611 5612 5612 5613 5613 5614 5614 5614 5615 5615 5615 5615 5615 5615 5616 5616 5616 5617 5617 5618 5618 5619 5619 5620 5620 5621 5621 5622 5622 5623 5624 5625 5625 5626 5627 5627 5628 5629 5629 5630 5630 5631 5632 5633 5634 5635 5635 5636 5636 5637 5638 5638 5639 5639 5640 5640 5641 5641 5642 5642 5642 5643 5643 5643 5644 5644 5645 5645 5645
5606 5606 5606 5607 5607 5608 5608 5609 5609 5610 5610 5610 5610 5611 5611 5611 5612 5613 5613 5613 5614 5614 5615 5616 5616 5617 5617 5618 5618 5619 5620 5620 5621 5622 5622 5623 5624 5625 5625 5626 5626 5627 5628 5629 5630 5630 5631 5632 5632 5633 5634 5635 5635 5635 5636 5637 5637 5638 5638 5638 5639 5639 5639 5640 5640 5640 5640 5641 5641
5601 5601 5601 5601 5601 5602 5602 5603 5604 5604 5605 5605 5605 5606 5606 5606 5607 5608 5608 5609 5609 5610 5611 5611 5612 5612 5613 5613 5614 5615 5615 5616 5617 5618 5618 5619 5620 5620 5621 5621 5622 5623 5624 5625 5626 5626 5627 5628 5628 5629 5630 5630 5631 5632 5632 5633 5633 5634 5634 5634 5635 5635 5635 5636 5636 5636 5637 5637 5637
5596 5596 5596 5596 5596 5596 5596 5597 5597 5598 5599 5600 5600 5600 5601 5601 5602 5603 5603 5604 5605 5606 5606 5607 5607 5608 5608 5609 5610 5610 5611 5611 5612 5613 5614 5615 5615 5616 5616 5617 5618 5619 5620 5621 5621 5622 5623 5624 5624 5625 5626 5626 5627 5628 5628 5629 5629 5630 5630 5630 5631 5631 5632 5632 5632 5633 5633 5633 5634
5592 5591 5591 5591 5591 5591 5591 5591 5591 5592 5593 5593 5594 5595 5596 5596 5597 5597 5598 5599 5600 5600 5601 5602 5602 5603 5604 5604 5605 5606 5606 5607 5608 5609 5609 5610 5610 5611 5612 5613 5614 5615 5616 5616 5617 5618 5619 5619 5620 5620 5621 5622 5623 5624 5624 5625 5625 5626 5626 5627 5627 5627 5628 5628 5629 5629 5629 5629 5629
5587 5586 5586 5586 5586 5586 5586 5586 5586 5586 5587 5587 5588 5589 5590 5591 5591 5592 5593 5594 5594 5595 5595 5596 5597 5598 5599 5600 5600 5601 5602 5603 5604 5604 5605 5605 5606 5607 5607 5608 5610 5610 5611 5612 5612 5613 5614 5615 5615 5616 5617 5618 5619 5619 5620 5620 5621 5622 5622 5623 5623 5624 5624 5624 5624 5625 5625 5625 5625
5581 5581 5581 5581 5581 5581 5581 5581 5581 5581 5581 5582 5582 5583 5584 5585 5585 5586 5587 5588 5589 5590 5590 5591 5592 5593 5594 5595 5595 5596 5597 5598 5599 5599 5600 5600 5601 5602 5603 5604 5605 5605 5606 5607 5608 5609 5609 5610 5611 5611 5612 5613 5614 5615 5615 5616 5617 5617 5618 5618 5619 5619 5620 5620 5620 5620 5620 5620 5621
5576 5576 5575 5575 5575 5575 5575 5575 5575 5576 5576 5576 5577 5578 5578 5579 5579 5580 5581 5582 5583 5584 5585 5585 5586 5587 5588 5589 5590 5591 5592 5593 5594 5594 5595 5595 5596 5597 5598 5598 5599 5600 5601 5602 5602 5603 5604 5605 5605 5606 5607 5608 5609 5610 5610 5611 5612 5612 5613 5614 5614 5615 5615 5615 5615 5615 5616 5616 5616
5570 5570 5569 5569 5569 5569 5569 5570 5570 5570 5571 5571 5572 5572 5573 5573 5574 5575 5575 5576 5577 5578 5579 5580 5581 5582 5583 5584 5585 5586 5587 5588 5589 5589 5590 5590 5591 5592 5593 5593 5594 5595 5595 5596 5597 5597 5598 5599 5600 5601 5602 5603 5604 5605 5605 5606 5607 5607 5608 5609 5609 5610 5610 5610 5611 5611 5611 5612 5612
5564 5564 5563 5563 5563 5563 5563 5564 5564 5565 5565 5565 5566 5567 5567 5568 5568 5569 5569 5570 5570 5571 5573 5574 5575 5576 5577 5579 5580 5580 5581 5582 5583 5584 5584 5585 5586 5587 5588 5588 5589 5590 5590 5591 5591 5592 5593 5594 5595 5595 5597 5597 5598 5599 5600 5601 5602 5602 5603 5604 5604 5605 5605 5605 5606 5606 5607 5607 5607
5558 5558 5558 5558 5558 5557 5558 5558 5558 5559 5559 5560 5560 5561 5562 5562 5563 5563 5564 5564 5565 5566 5566 5567 5569 5570 5572 5573 5574 5575 5576 5577 5577 5578 5579 5580 5581 5582 5582 5583 5584 5585 5585 5585 5586 5586 5587 5588 5589 5590 5591 5592 5593 5594 5595 5596 5597 5598 5598 5599 5600 5600 5600 5600 5601 5601 5602 5602 5603
5552 5552 5552 5552 5552 5551 5552 5552 5552 5553 5554 5554 5555 5555 5556 5556 5557 5558 5558 5559 5560 5560 5561 5562 5563 5564 5566 5567 5568 5569 5570 5571 5572 5573 5574 5575 5576 5576 5577 5578 5579 5579 5580 5580 5581 5581 5582 5583 5584 5585 5586 5587 5588 5589 5590 5591 5592 5593 5594 5594 5595 5595 5596 5596 5596 5597 5597 5598 5598
5546 5546 5546 5546 5546 5546 5546 5546 5547 5547 5548 5549 5550 5550 5550 5551 5551 5552 5553 5554 5554 5555 5555 5556 5558 5559 5560 5560 5562 5563 5565 5565 5567 5568 5569 5570 5570 5571 5572 5573 5573 5574 5575 5575 5575 5576 5577 5578 5579 5580 5581 5582 5583 5584 5585 5586 5587 5588 5589 5589 5590 5590 5591 5591 5592 5593 5593 5594 5594
5540 5540 5540 5540 5540 5540 5540 5541 5541 5542 5543 5543 5544 5545 5545 5545 5546 5546 5547 5548 5549 5550 5550 5551 5552 5553 5554 5555 5556 5557 5559 5560 5561 5562 5564 5565 5565 5566 5567 5567 5568 5569 5569 5570 5570 5571 5572 5573 5574 5575 5576 5577 5578 5580 5580 5581 5582 5583 5584 5585 5585 5586 5586 5587 5588 5589 5589 5590 5590
5534 5534 5534 5534 5534 5534 5535 5535 5535 5536 5537 5538 5538 5539 5539 5540 5540 5540 5541 5542 5543 5544 5545 5546 5547 5548 5549 5550 5550 5551 5553 5554 5555 5556 5558 5559 5560 5561 5562 5562 5563 5564 5564 5565 5565 5566 5567 5567 5568 5569 5570 5572 5573 5575 5575 5576 5577 5578 5579 5580 5580 5581 5582 5582 5583 5584 5585 5585 5586
5527 5527 5527 5527 5528 5528 5528 5529 5529 5530 5531 5532 5532 5533 5533 5533 5534 5534 5535 5535 5536 5538 5539 5540 5541 5542 5543 5544 5545 5546 5547 5548 5549 5550 5552 5553 5554 5555 5556 5557 5558 5559 5559 5559 5560 5560 5561 5562 5563 5564 5565 5566 5568 5570 5571 5572 5573 5573 5574 5575 5575 5576 5577 5578 5578 5579 5580 5581 5581
5520 5520 5521 5521 5521 5522 5522 5523 5523 5524 5525 5525 5526 5526 5527 5527 5528 5528 5529 5529 5530 5531 5533 5534 5535 5536 5538 5539 5540 5540 5541 5542 5543 5545 5546 5547 5549 5550 5551 5552 5553 5554 5554 5554 5555 5555 5556 5557 5558 5559 5560 5562 5563 5565 5566 5567 5568 5569 5570 5570 5571 5572 5572 5573 5574 5574 5575 5576 5577
5514 5514 5514 5515 5515 5515 5516 5516 5516 5517 5518 5519 5519 5520 5520 5521 5521 5522 5523 5523 5524 5525 5527 5528 5529 5530 5532 5533 5534 5535 5535 5536 5537 5539 5540 5541 5543 5545 5546 5547 5548 5548 5549 5549 5549 5550 5551 5552 5553 5554 5555 5557 5558 5560 5562 5563 5564 5565 5565 5565 5566 5567 5567 5568 5569 5570 5570 5571 5572
5508 5508 5508 5508 5509 5509 5509 5510 5510 5510 5511 5512 5513 5513 5514 5515 5515 5516 5517 5518 5519 5520 5520 5521 5523 5525 5526 5527 5528 5529 5530 5530 5532 5533 5534 5535 5537 5539 5540 5541 5542 5542 5543 5544 5544 5545 5546 5547 5548 5549 5550 5552 5554 5555 5557 5558 5559 5560 5560 5561 5561 5562 5563 5563 5564 5565 5565 5566 5567
5502 5502 5502 5502 5502 5502 5503 5503 5503 5504 5505 5505 5506 5507 5508 5509 5509 5510 5511 5512 5513 5514 5514 5515 5517 5518 5519 5520 5522 5523 5524 5525 5526 5527 5528 5530 5531 5532 5534 5535 5536 5536 5537 5538 5539 5540 5540 5541 5543 5544 5545 5547 5549 5551 5552 5554 5555 5555 5556 5556 5556 5557 5558 5558 5559 5560 5560 5561 5562
5495 5496 5495 5495 5496 5496 5496 5497 5497 5498 5498 5499 5500 5501 5502 5502 5503 5504 5505 5506 5507 5508 5509 5510 5511 5512 5513 5514 5515 5517 5518 5519 5520 5521 5522 5524 5525 5526 5528 5529 5530 5530 5531 5532 5533 5534 5535 5536 5537 5539 5540 5542 5544 5545 5547 5549 5550 5550 5551 5551 5552 5552 5553 5553 5554 5555 5555 5556 5557
5489 5489 5489 5489 5489 5490 5490 5490 5491 5491 5492 5493 5494 5495 5495 5496 5497 5498 5499 5500 5501 5502 5503 5504 5505 5506 5507 5508 5510 5511 5512 5513 5514 5515 5516 5517 5519 5520 5522 5523 5524 5525 5525 5526 5528 5529 5530 5531 5532 5533 5535 5536 5538 5540 5542 5544 5545 5545 5546 5547 5547 5547 5548 5548 5549 5550 5550 5550 5551
5481 5482 5482 5482 5482 5483 5484 5484 5485 5485 5486 5487 5488 5488 5489 5490 5491 5492 5493 5494 5495 5496 5497 5498 5499 5500 5501 5502 5504 5505 5506 5507 5508 5509 5510 5511 5513 5514 5516 5517 5518 5519 5520 5520 5522 5523 5524 5525 5527 5528 5529 5531 5533 5535 5536 5538 5539 5540 5541 5541 5542 5543 5543 5543 5544 5545 5545 5545 5546